Location: Ottawa
(45.4167°N, 75.7000°W)
Time: 18:29:15
(UTC-04:00)

Vanguard 2 - Visible Passes

Search period start: 23 October 2017 00:00
Search period end: 02 November 2017 00:00
Orbit: 553 x 2939 km, 32.9° (Epoch: 22 October)

Date Brightness Start Highest point End Pass type
(mag) Time Alt. Az. Time Alt. Az. Time Alt. Az.
23 Oct 11.9 05:31:42 10° S 05:41:03 17° SE 05:49:21 10° ESE visible
24 Oct 11.8 05:46:58 10° S 05:58:51 23° SSE 06:09:03 10° ESE visible
25 Oct 11.6 06:03:08 10° SSW 06:16:41 28° SSE 06:28:02 10° E visible
26 Oct 11.9 04:16:16 10° SSE 04:24:33 15° SE 04:32:29 10° ESE visible
26 Oct 11.4 06:19:50 10° SSW 06:34:33 34° SSE 06:46:39 10° E visible
27 Oct 11.7 04:30:57 10° S 04:42:11 21° SE 04:52:47 10° ESE visible
27 Oct 11.2 06:36:54 10° SW 06:52:28 39° SSE 07:05:01 10° E visible
28 Oct 11.5 04:46:47 10° SSW 04:59:51 26° SE 05:12:05 10° E visible
28 Oct 11.1 06:54:17 10° SW 07:10:25 44° SSE 07:23:15 10° E visible
29 Oct 11.8 03:02:44 10° SSE 03:08:04 12° SE 03:13:27 10° ESE visible
29 Oct 11.4 05:03:15 10° SSW 05:17:34 32° SSE 05:30:52 10° E visible
30 Oct 11.6 03:17:03 11° SSE 03:25:30 17° SE 03:35:10 10° ESE visible
30 Oct 11.2 05:20:09 10° SW 05:35:22 38° SSE 05:49:23 10° E visible
31 Oct 11.4 03:34:47 16° S 03:42:59 23° SE 03:54:59 10° E visible
31 Oct 11.0 05:37:23 10° SW 05:53:13 43° SSE 06:07:42 10° E visible
01 Nov 11.2 03:52:25 20° S 04:00:32 29° SE 04:14:05 10° E visible
01 Nov 10.9 05:54:51 10° SW 06:11:08 47° SSE 06:25:55 10° E visible
